This demonstration page uses our WeatherBlox Daily Observations layout. Learn more.

Hourly Observations for June 9, 2015

Temp ( °F °C ) Dew Point ( °F °C ) Humidity (%) Winds ( mph kmh ) Pressure ( in mb ) Visibility ( mi km ) Precip ( " mm )
12:15 am 00:15 Clear 69 20.4 54 12.3 60 60 S 3 6 29.88 1012 10 16.0934 0 0
12:35 am 00:35 Clear 69 20.8 53 11.6 56 56 S 5 7 29.88 1012 10 16.0934 0 0
12:55 am 00:55 Clear 69 20.8 53 11.6 56 56 S 6 9 29.88 1012 10 16.0934 0 0
1:15 am 01:15 Clear 68 20.2 53 11.7 58 58 Calm 29.88 1012 10 16.0934 0 0
1:35 am 01:35 Clear 68 19.9 53 11.7 59 59 S 5 7 29.88 1012 10 16.0934 0 0
1:55 am 01:55 Clear 68 20.1 52 11.2 57 57 S 3 6 29.88 1012 10 16.0934 0 0
2:15 am 02:15 Clear 68 19.8 54 12 61 61 S 3 6 29.88 1012 10 16.0934 0 0
2:35 am 02:35 Clear 67 19.7 55 12.7 64 64 S 3 6 29.88 1012 10 16.0934 0 0
2:55 am 02:55 Clear 67 19.6 55 12.5 64 64 S 5 7 29.88 1012 10 16.0934 0 0
3:15 am 03:15 Clear 68 19.8 55 12.5 63 63 SSW 6 9 29.85 1011 10 16.0934 0 0
3:35 am 03:35 Clear 67 19.2 55 12.9 67 67 SSW 6 9 29.85 1011 10 16.0934 0 0
3:55 am 03:55 Clear 67 19.4 55 12.5 65 65 SSW 7 11 29.85 1011 10 16.0934 0 0
4:15 am 04:15 Clear 67 19.6 54 12 62 62 SSW 8 13 29.85 1011 10 16.0934 0 0
4:35 am 04:35 Clear 67 19.2 54 12.2 64 64 SSW 8 13 29.85 1011 10 16.0934 0 0
4:55 am 04:55 Clear 66 18.9 54 12.2 65 65 SSW 7 11 29.85 1011 10 16.0934 0 0
5:15 am 05:15 Clear 66 18.7 54 12.3 67 67 SSW 9 15 29.85 1011 10 16.0934 0 0
5:35 am 05:35 Clear 64 17.8 55 12.6 72 72 SW 5 7 29.88 1012 10 16.0934 0 0
5:55 am 05:55 Clear 64 18 55 12.5 70 70 SW 6 9 29.88 1012 10 16.0934 0 0
6:15 am 06:15 Sunny 64 18 55 12.6 71 71 SSW 5 7 29.88 1012 10 16.0934 0 0
6:35 am 06:35 Sunny 65 18.1 55 12.8 71 71 SW 6 9 29.88 1012 10 16.0934 0 0
6:55 am 06:55 Sunny 65 18.4 56 13.2 72 72 SW 3 6 29.88 1012 10 16.0934 0 0
7:15 am 07:15 Sunny 68 19.8 56 13.5 67 67 SW 5 7 29.85 1011 10 16.0934 0 0
7:35 am 07:35 Sunny 70 21 56 13.5 62 62 SW 3 6 29.85 1011 10 16.0934 0 0
7:55 am 07:55 Sunny 72 22.1 57 14 60 60 Calm 29.85 1011 10 16.0934 0 0
8:15 am 08:15 Sunny 74 23.6 58 14.2 56 56 Calm 29.83 1010 10 16.0934 0 0
8:35 am 08:35 Sunny 77 24.9 56 13.4 49 49 WSW 6 9 29.83 1010 10 16.0934 0 0
8:55 am 08:55 Sunny 78 25.8 54 12.1 43 43 WSW 7 11 29.83 1010 10 16.0934 0 0
9:15 am 09:15 Sunny 80 26.6 55 12.5 42 42 WSW 9 15 29.77 1008 10 16.0934 0 0
9:35 am 09:35 Sunny 81 27.1 55 12.8 41 41 WSW 9 15 29.77 1008 10 16.0934 0 0
9:55 am 09:55 Sunny 82 27.6 56 13.5 42 42 WSW 10 17 29.77 1008 10 16.0934 0 0
10:15 am 10:15 Sunny 82 27.7 57 13.8 42 42 WSW 9 15 29.77 1008 10 16.0934 0 0
10:35 am 10:35 Sunny 83 28.2 58 14.2 42 42 SW 6 9 29.77 1008 10 16.0934 0 0
10:55 am 10:55 Sunny 84 29 58 14.4 41 41 SW 7 11 29.77 1008 10 16.0934 0 0
11:15 am 11:15 Sunny 85 29.7 58 14.4 39 39 WSW 8 13 29.74 1007 10 16.0934 0 0
11:35 am 11:35 Sunny 87 30.3 57 13.9 37 37 WSW 8 13 29.74 1007 10 16.0934 0 0
11:55 am 11:55 Sunny 87 30.7 58 14.2 37 37 SW 9 15 29.74 1007 10 16.0934 0 0
12:15 pm 12:15 Sunny 88 31 55 12.6 32 32 WSW 10 17 29.74 1007 10 16.0934 0 0
12:35 pm 12:35 Sunny 89 31.5 52 11.3 29 29 WSW 8 13 29.71 1006 10 16.0934 0 0
12:55 pm 12:55 Sunny 89 31.9 54 12 30 30 SW 7 11 29.71 1006 10 16.0934 0 0
1:15 pm 13:15 Sunny 90 32 52 11.3 28 28 SW 7 11 29.71 1006 10 16.0934 0 0
1:35 pm 13:35 Sunny 90 32.2 54 12 29 29 SW 9 15 29.71 1006 10 16.0934 0 0
1:55 pm 13:55 Sunny 91 32.7 54 12 28 28 SSW 10 17 29.71 1006 10 16.0934 0 0
2:15 pm 14:15 Sunny 91 33 53 11.7 27 27 SSW 10 17 29.71 1006 10 16.0934 0 0
2:35 pm 14:35 Sunny 91 32.8 53 11.7 27 27 WSW 8 13 29.65 1004 10 16.0934 0 0
2:55 pm 14:55 Sunny 91 33 53 11.8 27 27 W 13 20 29.65 1004 10 16.0934 0 0
3:15 pm 15:15 Sunny 92 33.1 52 10.9 26 26 WSW 12 19 29.65 1004 10 16.0934 0 0
3:35 pm 15:35 Sunny 92 33.5 53 11.8 27 27 SSW 9 15 29.65 1004 10 16.0934 0 0
3:55 pm 15:55 Sunny 92 33.5 52 11.3 26 26 SW 6 9 29.62 1003 10 16.0934 0 0
4:15 pm 16:15 Sunny 92 33.6 52 11.1 25 25 SW 10 17 29.62 1003 10 16.0934 0 0
4:35 pm 16:35 Sunny 93 33.8 51 10.5 24 24 WSW 7 11 29.62 1003 10 16.0934 0 0
4:55 pm 16:55 Sunny 93 34 48 9.1 22 22 W 8 13 29.62 1003 10 16.0934 0 0
5:15 pm 17:15 Sunny 93 34 52 11.1 25 25 W 7 11 29.62 1003 10 16.0934 0 0
5:35 pm 17:35 Sunny 93 34 50 10.1 23 23 W 13 20 29.59 1002 10 16.0934 0 0
5:55 pm 17:55 Sunny 93 34 50 10 23 23 WNW 6 9 29.59 1002 10 16.0934 0 0
6:15 pm 18:15 Sunny 93 33.8 50 10.1 23 23 W 8 13 29.59 1002 10 16.0934 0 0
6:35 pm 18:35 Sunny 93 33.7 51 10.7 24 24 W 8 13 29.59 1002 10 16.0934 0 0
6:55 pm 18:55 Sunny 92 33.6 50 9.9 23 23 WSW 5 7 29.59 1002 10 16.0934 0 0
7:15 pm 19:15 Sunny 92 33.5 51 10.4 24 24 W 7 11 29.59 1002 10 16.0934 0 0
7:35 pm 19:35 Sunny 91 32.8 53 11.8 28 28 SW 3 6 29.59 1002 10 16.0934 0 0
7:55 pm 19:55 Sunny 90 32.2 55 12.7 30 30 SW 3 6 29.62 1003 10 16.0934 0 0
8:15 pm 20:15 Sunny 89 31.9 55 12.8 31 31 SW 5 7 29.62 1003 10 16.0934 0 0
8:35 pm 20:35 Sunny 88 30.9 56 13.5 35 35 SW 5 7 29.62 1003 10 16.0934 0 0
8:55 pm 20:55 Sunny 87 30.6 55 12.5 33 33 SSW 5 7 29.62 1003 10 16.0934 0 0
9:15 pm 21:15 Clear 85 29.5 54 12.4 35 35 SSW 3 6 29.62 1003 10 16.0934 0 0
9:35 pm 21:35 Clear 85 29.2 55 12.7 36 36 SSW 5 7 29.62 1003 10 16.0934 0 0
9:55 pm 21:55 Clear 81 27 58 14.6 47 47 SSW 3 6 29.65 1004 10 16.0934 0 0
10:15 pm 22:15 Clear 79 25.9 58 14.7 50 50 Calm 29.68 1005 10 16.0934 0 0
10:35 pm 22:35 Clear 78 25.5 59 15 52 52 Calm 29.68 1005 10 16.0934 0 0
10:55 pm 22:55 Clear 77 25.1 59 15.1 54 54 Calm 29.68 1005 10 16.0934 0 0
11:15 pm 23:15 Clear 76 24.4 59 14.8 55 55 Calm 29.71 1006 10 16.0934 0 0
11:35 pm 23:35 Clear 76 24.5 58 14.2 53 53 Calm 29.68 1005 10 16.0934 0 0
11:55 pm 23:55 Clear 75 23.9 58 14.5 56 56 Calm 29.71 1006 10 16.0934 0 0

Powered by AerisWeather